Location: Aciura
(46.3333°N, 22.4833°E)
Time: 05:42:07
(UTC+00:00)

Daily predictions for brighter satellites

Satellite Brightness Start Highest point End
(mag) Time Altitude Azimuth Time Altitude Azimuth Time Altitude Azimuth
CZ-2D R/B 4.2 00:07:00 10° NNE 00:09:03 24° NNE 00:09:03 24° NNE
Resurs 1-4 Rocket 4.1 00:18:46 10° NNE 00:20:45 24° NNE 00:20:45 24° NNE
ATLAS 5 CENTAUR R/B 4.1 00:59:08 15° N 00:59:08 15° N 01:00:14 10° NNE
IDEFIX/ARIANE 42P 3.9 00:52:05 10° NNE 00:55:03 35° NNE 00:55:03 35° NNE
Cosmos 1821 Rocket 4.3 01:00:55 64° NE 01:00:55 64° NE 01:06:21 10° NNE
SL-16 R/B 4.2 01:09:58 21° NW 01:09:58 21° NW 01:12:01 10° NNW
MSX 4.3 01:02:27 10° NNE 01:06:54 56° NNE 01:06:54 56° NNE
ADEOS II 3.3 01:14:12 10° N 01:17:15 34° N 01:17:15 34° N
Cosmos 1934 Rocket 4.5 01:24:02 41° SSE 01:26:01 58° E 01:32:14 10° NNE
IRS-1D 3.7 01:25:14 10° NNE 01:30:04 72° NE 01:30:04 72° NE
BREEZE-M R/B 3.9 01:33:31 77° S 01:33:50 79° SSE 01:44:11 10° ENE
Cosmos 1932 4.3 01:40:48 75° WSW 01:41:16 81° NW 01:47:44 10° NE
CZ-2C R/B 4.3 01:37:27 10° SE 01:42:02 32° ENE 01:46:42 10° N
CZ-2D R/B 4.0 01:48:07 10° NNW 01:50:21 17° NW 01:50:21 17° NW
PAYLOAD A 4.5 01:48:04 10° NNE 01:52:44 53° E 01:54:28 35° SSE
Cosmos 407 Rocket 4.2 01:48:31 10° NNW 01:53:44 54° ENE 01:58:57 10° SE
Atlas Centaur 2 4.3 01:53:42 20° S 01:54:34 20° S 01:59:40 10° SE
Cosmos 1980 Rocket 4.4 01:54:55 10° N 01:59:26 24° NE 02:03:54 10° E
Meteor 1-14 Rocket 4.4 01:53:58 10° N 01:59:57 77° ENE 02:05:47 10° SSE
Cosmos 1656 3.7 01:55:08 10° NNW 02:00:53 81° ENE 02:06:35 10° SSE
Resurs 1-4 Rocket 4.1 02:00:13 10° NNW 02:01:49 14° NW 02:01:49 14° NW
Tiangong 0.7 02:05:55 13° SE 02:05:55 13° SE 02:06:25 10° SE
BREEZE-M DEB (TANK) 3.5 02:06:06 30° ENE 02:06:06 30° ENE 02:07:49 10° ENE
ALOS 2.1 02:00:23 10° NNE 02:05:05 90° NW 02:05:41 68° SSW
X-37B 2.9 02:12:01 17° ESE 02:12:01 17° ESE 02:13:11 10° E
Meteor 1-5 Rocket 3.9 02:07:22 10° NNW 02:12:46 69° W 02:15:44 27° S
ARIANE 5 R/B 3.1 02:10:49 10° NNE 02:15:47 54° E 02:20:31 11° S
USA 307 4.4 02:15:27 24° SSE 02:16:37 28° SE 02:20:12 10° ENE
Cosmos 1805 Rocket 3.6 02:13:20 10° NNW 02:17:18 59° WNW 02:17:18 59° WNW
Helios 1B rocket 2.5 02:14:07 10° NNE 02:18:11 74° ESE 02:19:28 42° S
SL-08 R/B 4.2 02:18:25 10° SE 02:22:53 50° ENE 02:27:26 10° N
Meteor 1-26 Rocket 4.5 02:23:10 42° WSW 02:24:08 47° WNW 02:29:31 10° N
Cosmos 1023 Rocket 4.3 02:21:07 10° NNW 02:26:18 73° WSW 02:31:30 10° SSE
Cosmos 1633 Rocket 3.7 02:22:53 10° N 02:27:10 54° ENE 02:31:25 10° SSE
USA 306 3.7 02:29:43 31° S 02:31:06 43° SE 02:35:02 10° ENE
Cosmos 2360 4.5 02:27:23 10° NNW 02:33:07 71° ENE 02:38:47 10° SE
Cosmos 1484 Rocket 3.5 02:29:36 10° NNE 02:33:32 56° E 02:37:25 10° S
Cosmos 2098 Rocket 2.9 02:31:08 10° N 02:33:58 49° E 02:36:49 10° SSE
USA 234 3.8 02:29:34 10° ENE 02:35:57 52° SE 02:41:22 15° SSW
IDEFIX/ARIANE 42P 4.4 02:33:24 10° NNW 02:35:50 15° NW 02:35:50 15° NW
Cosmos 1666 Rocket 3.6 02:32:24 10° N 02:36:54 84° E 02:41:22 10° S
CZ-2C R/B 4.5 02:33:19 10° NNE 02:38:51 43° E 02:44:10 10° SSE
Cosmos 1833 Rocket 2.8 02:38:02 16° SSW 02:42:40 80° ESE 02:48:21 10° NNE
ATLAS 5 CENTAUR R/B 4.1 02:42:45 10° N 02:43:03 10° N 02:43:20 10° N
CZ-2C R/B 2.6 02:38:32 10° N 02:43:27 52° WNW 02:45:48 28° SW
Cosmos 1328 Rocket 3.9 02:39:47 10° S 02:44:06 67° E 02:48:29 10° NNE
Meteor 1-4 Rocket 3.6 02:41:10 10° N 02:44:41 48° ENE 02:48:12 10° SSE
Cosmos 2251 Rocket 3.9 02:40:52 10° NW 02:45:40 37° WSW 02:50:26 10° SSW
Cosmos 1447 Rocket 4.4 02:42:13 10° NNW 02:48:32 72° W 02:54:46 10° S
Envisat 3.5 02:43:35 10° NNE 02:48:39 63° E 02:53:40 10° S
Cosmos 1371 Rocket 4.1 02:43:31 10° SSW 02:48:48 78° ESE 02:54:04 10° NNE
Aureole 3 3.5 02:47:46 32° SW 02:49:12 48° W 02:52:40 10° N
IRS-1C 4.1 02:45:14 10° N 02:50:33 67° WNW 02:55:30 12° SSW
USA 308 3.5 02:48:54 23° SSW 02:51:12 50° SE 02:55:13 10° ENE
COSMOS 2406 4.1 02:46:00 10° S 02:51:27 50° ESE 02:56:55 10° NE
Cosmos 1515 3.5 02:49:12 12° S 02:52:33 86° W 02:56:19 10° N
Cosmos 2082 Rocket 3.5 02:47:48 10° S 02:52:59 39° ESE 02:58:10 10° NE
FENGYUN 3A 4.4 02:48:27 10° N 02:53:11 32° WNW 02:55:11 25° WSW
Cosmos 1536 2.9 02:51:59 10° N 02:56:04 81° E 03:00:06 10° S
Meteor 2-6 Rocket 4.3 02:53:00 17° SW 02:56:57 50° WNW 03:02:17 10° N
ERBS 1.8 02:56:41 48° WSW 02:57:18 69° NW 03:00:12 10° NE
Orbus 7S? 3.2 02:56:26 29° SW 02:57:54 79° SE 03:03:11 10° NE
Cosmos 1515 Rocket 4.4 02:57:47 10° S 03:02:04 54° E 03:06:26 10° NNE
Cosmos 1151 Rocket 3.2 02:59:57 18° SW 03:02:46 46° WNW 03:06:53 10° N
Cosmos 1140 Rocket 3.9 02:58:18 10° NW 03:03:02 37° WSW 03:07:45 10° SSW
Sich 1 4.0 03:00:08 10° NW 03:03:38 25° W 03:04:07 24° W
YAOGAN 6 2.5 03:01:34 10° N 03:05:13 75° WNW 03:08:50 10° SSW
Cosmos 1697 Rocket 2.6 02:59:48 10° NNW 03:05:26 69° WSW 03:11:02 10° SSE
Cosmos 1470 Rocket 3.5 03:03:31 10° N 03:07:52 87° E 03:12:12 10° S
Cosmos 1605 Rocket 4.5 03:08:56 12° SW 03:14:10 37° WNW 03:19:47 10° N
Cosmos 1346 Rocket 2.9 03:12:14 10° SSW 03:16:08 52° WNW 03:20:03 10° N
ATLAS CENTAUR R/B 2.1 03:12:38 10° SSW 03:17:24 66° ESE 03:22:15 10° NE
Cosmos 1356 4.0 03:16:28 19° SW 03:18:14 32° WNW 03:21:13 10° N
Cosmos 2056 Rocket 3.5 03:14:17 10° SSW 03:19:22 64° WNW 03:24:28 10° NNE
Meteor 1-27 Rocket 3.7 03:14:37 10° SSW 03:20:21 77° WNW 03:26:14 10° N
Cosmos 1802 Rocket 4.3 03:14:14 10° S 03:20:36 76° E 03:26:57 10° NNE
USA 305 2.8 03:18:17 17° WSW 03:21:27 83° NNW 03:25:36 10° ENE
Cosmos 1743 2.9 03:18:17 10° NNW 03:21:56 47° W 03:25:34 10° SSW
Meteor 1-10 Rocket 4.5 03:16:50 10° SSW 03:22:09 47° WNW 03:27:34 10° N
CZ-2C R/B 3.0 03:17:27 10° SSW 03:22:14 37° W 03:27:08 10° NNW
Cosmos 1190 Rocket 4.3 03:17:41 10° NW 03:22:33 42° WSW 03:27:26 10° S
Cosmos 1954 Rocket 4.0 03:19:03 10° NNW 03:24:12 61° WSW 03:29:23 10° S
CZ-2C R/B 2.9 03:20:52 10° NNE 03:24:37 76° ESE 03:28:24 10° S
CENTAUR R/B 3.8 03:19:44 10° S 03:25:00 40° ESE 03:31:15 10° NE
Cosmos 1459 Rocket 4.0 03:19:21 10° S 03:25:42 81° W 03:32:07 10° N
Cosmos 1441 Rocket 3.2 03:24:04 10° SSW 03:27:41 51° WNW 03:31:20 10° N
Cosmos 1420 Rocket 4.1 03:26:31 10° SW 03:31:42 60° WNW 03:36:52 10° NNE
Spot 4 Rocket 4.0 03:26:57 10° N 03:32:03 65° WNW 03:37:07 10° SSW
Cosmos 2322 Rocket 4.5 03:27:25 10° N 03:32:04 25° NE 03:36:41 10° ESE
COSMO-SKYMED 1 2.8 03:30:21 10° SSE 03:34:40 75° ENE 03:39:01 10° N
NOSS 3-2 (A) 4.3 03:31:01 10° S 03:36:08 47° ESE 03:42:01 10° NE
Cosmos 1725 Rocket 4.3 03:30:12 10° S 03:36:29 77° E 03:42:49 10° NNE
CZ-2D R/B 4.3 03:35:55 10° N 03:39:16 27° WNW 03:42:38 10° SW
Tiangong 0.0 03:38:04 10° WSW 03:39:48 14° SSW 03:41:32 10° S
CZ-4C R/B 3.7 03:35:54 10° S 03:39:49 47° W 03:43:57 10° NNW
Cosmos 1378 3.2 03:37:10 10° S 03:40:47 80° E 03:44:26 10° N
Cosmos 1741 Rocket 4.5 03:35:55 10° NNW 03:41:09 66° ENE 03:46:19 10° SSE
Meteor 1-29 3.6 03:38:15 10° N 03:41:13 32° WNW 03:44:11 10° SW
SJ-12 4.0 03:37:22 10° NNE 03:41:27 80° ESE 03:45:31 10° S
ALOS 4.2 03:39:43 10° NNW 03:41:44 13° WNW 03:43:45 10° W
Meteor 2-9 Rocket 4.2 03:36:22 10° NNW 03:42:12 81° W 03:47:51 10° S
Atlas Centaur 2 4.2 03:37:27 10° SW 03:42:51 21° S 03:47:36 10° SE
Cosmos 2369 3.7 03:37:27 10° NNW 03:43:05 64° WSW 03:48:39 10° SSE
Cosmos 1980 Rocket 2.2 03:38:22 10° NNW 03:43:56 67° WSW 03:49:27 10° SSE
BREEZE-M DEB (TANK) 2.8 03:41:14 10° WNW 03:44:05 61° SSW 03:52:00 10° SE
Okean 1 3.3 03:40:20 10° SSW 03:44:22 75° W 03:48:26 10° N
Lacrosse 4 Rocket 3.6 03:41:31 10° NNW 03:45:16 28° NE 03:49:03 10° ESE
X-37B 0.6 03:43:15 10° WSW 03:46:02 60° S 03:48:53 10° E
H-2A R/B 4.4 03:41:48 10° NNE 03:46:35 30° E 03:51:20 10° SSE
Cosmos 1869 Rocket 4.0 03:45:14 10° N 03:49:42 71° E 03:54:06 10° SSE
Cosmos 2278 3.9 03:46:10 10° NNW 03:51:52 81° ENE 03:57:31 10° SSE
H-2A R/B 3.2 03:49:16 10° N 03:52:39 37° WNW 03:56:02 10° SW
Cosmos 2173 Rocket 4.2 03:46:45 10° SSW 03:52:41 50° WNW 03:58:37 10° N
Helios 1B rocket 4.4 03:51:01 10° NW 03:52:44 12° WNW 03:54:28 10° W
ARIANE 5 R/B 3.7 03:50:39 10° N 03:54:30 22° WNW 03:58:19 10° WSW
USA 307 3.0 03:51:41 10° WSW 03:55:48 62° NNW 03:59:56 10° NE
SL-16 R/B 3.4 03:51:45 10° NNW 03:57:14 47° ENE 04:02:41 10° SE
